Погода в Ербенте

Погода в Ербенте : погода сейчас, прогноз погоды и архив. Всё, что Вы хотите узнать о погоде в Ербенте!

Хотите узнать прогноз погоды в Ербенте? Тогда Вам сюда: Погода в Ербенте

Поиск расширенной информации на нашем сайте:

Другие новости

Новости СМИ2

Главная страница сайта

Новости сайта

03.07.2017

Напоминаем, что на нашем специализированном сайте Метеоцентр.Азия вы можете получить высокодетализированные автоматические прогнозы погоды по пунктам России, СНГ и мира в авиационном формате (включающие направление и скорость ветра, видимость, явления погоды, количество и форму облачности, нижнюю и верхнюю границу облачности).


Погода в Ербенте - сегодня

Время (UTC), дата Ветер
(°,м/с) 
Видим.   Явления Облачность Т
(°С)
Тd
(°С)
f(%) Тe
(°С)
Pmin
(гПа)
dP
(гПа)
Po
(мм)
O2
(г/м3)
Тmin Tmax R s Состояние
почвы
12 17.02.18 090 (В) 20000 м    9/9 1000 м 
[Sc]
+8 -0.7 54 +7  1028.2  -1.7  763  299           
15 17.02.18 090 (В) 20000 м    10/10 1000 м 
[Sc]
+6.6 -2.8 51 +6  1027.7  -0.4  763  300    +8.5       
18 17.02.18 090 (В) 20000 м    10/10 1000 м 
[Sc]
+5 -4 52 +4  1027.6  0.2  762  302    +8.5       
21 17.02.18 090 (В) 20000 м    ясно 
+3.8 -3.1 61 +3  1025.9  -1.8  761  303           
00 18.02.18 070 (В) 20000 м    ясно 
+2 -2 75 +1  1025.1  -0.9  760  304           
03 18.02.18 070 (В) 20000 м    ясно 
+0.8 -2.8 77 -1  1025.1  760  306           
06 18.02.18 070 (В) 20000 м    8/0 верхняя 
[Ci sp]
+3.6 -2.4 65 +2  1024.2  -0.8  760  302  +0.5         
09 18.02.18 090 (В) 20000 м    8/0 верхняя 
[Ci sp]
+9.1 -1.7 47 +7  1021.3  -2.6  758  296           
12 18.02.18 090 (В) 20000 м    6/0 верхняя 
[Ci sp]
+11.3 -0.9 43 +10  1018  -3.2  755  292           
15 18.02.18 090 (В) 20000 м    8/0 средняя, верхняя 
[Ac cast|Ci sp]
+9.7 -6 32 +9  1017.6  -0.4  755  294    +11.6       
18 18.02.18 090 (В) 20000 м    ясно 
+7.2 -5.7 39 +5  1015.6  -2.1  754  296    +11.6       
21 18.02.18 090 (В) 20000 м    10/0 средняя 
[Ac As]
+5.8 -3.2 52 +3  1014  -1.7  752  297           
00 19.02.18 070 (В) 20000 м    10/0 средняя 
[Ac As]
+4.9 -2.4 59 +4  1013.7  -0.3  752  298           
03 19.02.18 320 (СЗ) 20000 м    10/10 1000 м 
[Sc]
+3.8 -0.2 75 +3  1015.5  1.7  753  299           
06 19.02.18 360 (С) 10 км  слаб. ливневой дождь  10/10 600 м кучево-дожд. 
[Cb cap]
+4.2 -0.1 74 +4  1016.6  1.1  754  299  +3.7         
09 19.02.18 320 (СЗ) 20000 м    10/10 1000 м 
[Sc]
+7 +2.1 71 +7  1015.8  -0.6  754  296           
12 19.02.18 340 (С) 10 км  слаб. ливневой дождь  10/10 600 м кучево-дожд. 
[Cb cap]
+7.1 +4.1 81 +7  1015.7  -0.1  754  295           
15 19.02.18 320 (СЗ) 20000 м  в посл. час ливневой дождь  10/10 1000 м 
[Sc]
+5.8 +3.7 86 +6  1017  1.2  755  297    +7.5     
18 19.02.18 270 (З) 20000 м    10/10 1000 м 
[Sc]
+6.4 +4.6 88 +6  1017.6  0.7  755  297    +7.5     
21 19.02.18 тихо ()   20000 м    10/10 1000 м 
[Sc]
+6.2 +4.6 89 +6  1017.5  -0.2  755  297           
00 20.02.18 290 (З) 20000 м    9/9 1000 м 
[Sc]
+6.1 +2.7 79 +4  1017.7  0.2  755  297           
03 20.02.18 тихо ()   20000 м    3/0 средняя 
[Ac cast]
-2.2 -4 87 -2  1030.6  0.2  764  311           
06 20.02.18 тихо ()   20000 м    8/0 средняя 
[Ac cast]
+3.6 +0.4 80 +4  1031  2.2  765  304  -1.4    0.4     
09 20.02.18 290 (З) 20000 м    9/9 1000 м 
[Sc]
+8 +0.9 61 +7  1020.9  757  296           
12 20.02.18 290 (З) 20000 м    9/9 1000 м 
[Sc]
+9.4 +1.1 56 +9  1020.2  -0.6  757  295           
Время (UTC), дата Ветер
(°,м/с) 
Видим.   Явления Облачность Т
(°С)
Тd
(°С)
f(%) Тe
(°С)
Pmin
(гПа)
dP
(гПа)
Po
(мм)
O2
(г/м3)
Тmin Tmax R s Состояние
почвы

Для получения пояснительной информации подведите курсор к названию столбца.

ПОГОДА в Ербенте - архив

Всё, что Вы хотите узнать о погоде в Ербенте - удобно и подробно!

Выберите нужную дату (начиная с 1 января 2015* года) и нажмите кнопку "Найти".
Будут отображены архивные сводки погоды по пункту Ербент, начиная с указанной даты.


Отображать данные в формате CSV (для использования в таблицах Excel)


Внимание! Наш архив погоды предназначен исключительно для личного некоммерческого использования в познавательных целях. Если Вам необходимы официальные справки о состоянии погоды (для производственных, юридических, коммерческих и т.п. целей), обращайтесь в органы Росгидромета.

*Примечание: данная дата относится к архиву по метеостанциям СССР (Россия, СНГ, Балтия).
Архив по метеостанциям Зарубежной Европы и Азии (кроме Китая) хранится 10 дней, по другим регионам земного шара (Китай, Африка, Америка, Австралия, Океания) - 1 день.

Ербент - район местоположения метеостанции


Название, широта, долгота, высота метеостанции:
Ербент 39.3°ш. 58.6°д. 87 м над ур. моря [Туркменистан]

Дополнительная информация

В oтличие oт бoльшинства пoгoдных сайтoв мы публикуем пoдрoбную метеoинфoрмацию в детальнoм прoфессиoнальнoм фoрмате.

Характеристики температуры и влажнoсти вoздуха измеряются на высoте 2 м в тени вдали oт зданий и деревьев.
Скoрoсть ветра измеряется на высoте 10 м (на урoвне рoста челoвека скoрoсть ветра ниже в 1.5-2 раза). Если метеoстанция нахoдится в гoрoде или в лесу, тo скoрoсть ветра занижена на 2-4 м/с пo сравнению с oткрытым местoм. Скoрoсть ветра над акватoриями крупных рек и oзёр, а также на вершинах хoлмoв на 2-5 м/с выше, чем в oбычных услoвиях.
Атмoсфернoе давление в разных тoчках местнoсти мoжет значительнo oтличаться oт давления на метеoстанции, в зависимoсти oт услoвий рельефа (при пoдъёме на 10 м давление пoнижается примернo на 1 мм рт.ст.).